Weather History for Provo, UT

Change the Weather History Date:

Wednesday, February 13, 2013

  Actual Average Record
Temperature  
Mean Temperature 28 °F -  
Max Temperature 33 °F 39 °F 52 °F (1987)
Min Temperature 23 °F 24 °F 0 °F (2004)
Degree Days  
Heating Degree Days 37    
Moisture  
Dew Point 21 °F    
Average Humidity 83    
Maximum Humidity 93    
Minimum Humidity 60    
Precipitation  
Precipitation 0.00 in - - ()
Sea Level Pressure  
Sea Level Pressure 30.34 in    
Wind  
Wind Speed 1 mph (SW)    
Max Wind Speed 5 mph    
Max Gust Speed -    
Visibility 7 miles    
Events      
Averages and records for this station are not official NWS values.
T = Trace of Precipitation, MM = Missing Value Source: NWS Daily Summary

Daily Weather History Graph

Daily Weather History Graph

Search for Another Location

Airport:

Trip Planner

Search our weather history database for the weather conditions in past years. The results will help you decide how hot, cold, wet, or windy it might be!

Date:

Astronomy

Feb. 13, 2013 Rise Set
Actual Time 7:22 AM MST 6:00 PM MST
Civil Twilight 6:54 AM MST 6:28 PM MST
Nautical Twilight 6:22 AM MST 7:00 PM MST
Astronomical Twilight 5:50 AM MST 7:31 PM MST
Moon 8:53 AM MST (2/13) 10:07 PM MST (2/13)
Length of Visible Light 11h 34m
Length of Day
10h 38m
Waxing Crescent, 14% of the Moon is Illuminated
Feb 13
Waxing Crescent
Feb 17
First Quarter
Feb 25
Full
Mar 4
Last Quarter
Mar 11
New

Hourly Weather History & Observations

Time (MST) Temp. Windchill Dew Point Humidity Pressure Visibility Wind Dir Wind Speed Gust Speed Precip Events Conditions
12:15 AM 23.0 °F 18.4 °F 21.2 °F 93% 30.38 in 7.0 mi WSW 3.5 mph - N/A   Overcast
12:35 AM 23.0 °F - 19.4 °F 86% 30.38 in 7.0 mi Calm Calm - N/A   Overcast
12:55 AM 23.0 °F - 21.2 °F 93% 30.39 in 7.0 mi Calm Calm - N/A   Overcast
1:15 AM 24.8 °F - 19.4 °F 80% 30.38 in 7.0 mi Calm Calm - N/A   Overcast
1:35 AM 24.8 °F - 19.4 °F 80% 30.38 in 8.0 mi Calm Calm - N/A   Overcast
1:55 AM 24.8 °F - 21.2 °F 86% 30.38 in 8.0 mi Calm Calm - N/A   Overcast
2:15 AM 24.8 °F - 19.4 °F 80% 30.38 in 8.0 mi Calm Calm - N/A   Overcast
2:35 AM 24.8 °F - 19.4 °F 80% 30.37 in 7.0 mi Calm Calm - N/A   Overcast
2:55 AM 24.8 °F - 21.2 °F 86% 30.36 in 5.0 mi Calm Calm - N/A   Overcast
3:15 AM 23.0 °F - 21.2 °F 93% 30.36 in 5.0 mi Calm Calm - N/A   Overcast
3:35 AM 23.0 °F - 21.2 °F 93% 30.36 in 6.0 mi Calm Calm - N/A   Overcast
3:55 AM 23.0 °F - 21.2 °F 93% 30.36 in 5.0 mi Calm Calm - N/A   Overcast
4:15 AM 23.0 °F 17.0 °F 21.2 °F 93% 30.35 in 5.0 mi SSW 4.6 mph - N/A   Overcast
4:35 AM 23.0 °F - 21.2 °F 93% 30.35 in 5.0 mi Calm Calm - N/A   Overcast
4:55 AM 24.8 °F - 19.4 °F 80% 30.34 in 7.0 mi Calm Calm - N/A   Overcast
5:15 AM 23.0 °F - 21.2 °F 93% 30.34 in 5.0 mi Calm Calm - N/A   Overcast
5:35 AM 23.0 °F - 19.4 °F 86% 30.35 in 5.0 mi Calm Calm - N/A   Overcast
5:55 AM 23.0 °F - 19.4 °F 86% 30.34 in 5.0 mi Calm Calm - N/A   Overcast
6:15 AM 23.0 °F - 19.4 °F 86% 30.35 in 6.0 mi Calm Calm - N/A   Overcast
6:35 AM 23.0 °F - 19.4 °F 86% 30.35 in 6.0 mi Calm Calm - N/A   Overcast
6:47 AM 23.0 °F - 19.4 °F 86% 30.35 in 7.0 mi Calm Calm - N/A   Overcast
7:50 AM 24.8 °F - 19.4 °F 80% 30.37 in 5.0 mi Calm Calm - N/A   Mostly Cloudy
8:50 AM 24.8 °F - 21.2 °F 86% 30.38 in 5.0 mi Calm Calm - N/A   Mostly Cloudy
9:47 AM 24.8 °F - 21.2 °F 86% 30.38 in 5.0 mi Calm Calm - N/A   Mostly Cloudy
10:49 AM 26.6 °F - 21.2 °F 80% 30.38 in 7.0 mi Calm Calm - N/A   Scattered Clouds
11:50 AM 28.4 °F - 21.2 °F 74% 30.38 in 6.0 mi Calm Calm - N/A   Haze
12:50 PM 28.4 °F - 21.2 °F 74% 30.35 in 8.0 mi Calm Calm - N/A   Haze
1:50 PM 32.0 °F - 23.0 °F 69% 30.33 in 8.0 mi Calm Calm - N/A   Haze
2:47 PM 33.8 °F - 21.2 °F 60% 30.31 in 8.0 mi Calm Calm - N/A   Haze
4:05 PM 30.2 °F - 21.2 °F 69% 30.31 in 8.0 mi Calm Calm - N/A   Haze
5:50 PM 30.2 °F - 23.0 °F 75% 30.28 in 10.0 mi Calm Calm - N/A   Mostly Cloudy
6:50 PM 30.2 °F - 23.0 °F 75% 30.28 in 10.0 mi Calm Calm - N/A   Mostly Cloudy
7:49 PM 30.2 °F - 26.6 °F 86% 30.28 in 10.0 mi Calm Calm - N/A   Mostly Cloudy
8:55 PM 28.4 °F - 24.8 °F 86% 30.28 in 10.0 mi Calm Calm - N/A   Mostly Cloudy
9:15 PM 28.4 °F 24.6 °F 24.8 °F 86% 30.29 in 8.0 mi West 3.5 mph - N/A   Overcast
9:35 PM 28.4 °F - 24.8 °F 86% 30.29 in 9.0 mi Calm Calm - N/A   Overcast
9:55 PM 28.4 °F 23.3 °F 24.8 °F 86% 30.28 in 10.0 mi SSW 4.6 mph - N/A   Overcast
10:15 PM 26.6 °F 22.6 °F 23.0 °F 86% 30.28 in 9.0 mi SSW 3.5 mph - N/A   Overcast
10:35 PM 26.6 °F 22.6 °F 21.2 °F 80% 30.28 in 10.0 mi SSW 3.5 mph - N/A   Overcast
10:55 PM 26.6 °F - 21.2 °F 80% 30.28 in 10.0 mi Calm Calm - N/A   Overcast
11:15 PM 26.6 °F - 21.2 °F 80% 30.28 in 10.0 mi Calm Calm - N/A   Overcast
11:35 PM 26.6 °F 21.2 °F 21.2 °F 80% 30.28 in 9.0 mi West 4.6 mph - N/A   Scattered Clouds
11:55 PM 24.8 °F - 19.4 °F 80% 30.28 in 7.0 mi Calm Calm - N/A   Mostly Cloudy